COSMOS 877

Satellite information

Favourite Embed

Satellite Type and Status

PAYLOADIN ORBIT

Key statistics

Satellite COSMOS 877 at a glance.

Uptime

17859

Days in orbit

Revolutions

≈ 12.5

Per day

Orbit

LEO

Low Earth Orbit

Inclination

74.0

Latest

Satellite identification and parameters

Extended collection of information and parameters for COSMOS 877.

Object identification

Identified? True

Debris? False

Object name: COSMOS 877

International designator: 1976-118G

Object number (NORAD): 9594

Object ID (CCSDS): 9594

Country: COMMONWEALTH OF INDEPENDENT STATES (CIS)

Current information (Y/N): Y

RCS size: MEDIUM

Orbital parameters

Period: 115.077 minutes

Inclination: 74.0312 deg

SMA: 7837.051 km

Apoapsis: 1463.971 km

Periapsis: 1453.86 km

RAAN: 216.7665 deg

Eccentricy: 0.00064512

Argument of periapsis: 205.6571 deg

Mean anomaly: 220.0395 deg

Mean motion: 12.51335568 rev/day

Mean motion (dot): -0.00000011 rev/day2

B* drag term: 0.000029197231 1/REarth

Two-line elements (TLE)

Creation date: Oct. 30, 2025, 3:32 a.m.

Reference frame: TEME

Reference center: EARTH

Epoch: Oct. 29, 2025, 9:35 p.m. UTC

TLE line 0: 0 COSMOS 877

TLE line 1: 1 09594U 76118G 25302.89935391 -.00000011 00000-0 29197-4 0 9994

TLE line 2: 2 09594 74.0312 216.7665 0006451 205.6571 220.0395 12.51335568233447

Live tracking on map

Real-time ground track for satellite COSMOS 877.

In-orbit conjunctions

A list of the most updated potential collisions computed for object COSMOS 877.

Target Orbit TCA Probability of collision Miss distance Type
ARIANE 42P DEB LEO 2025-01-23 13:52:58 0.0001270594 158.0 (m) DEBRIS

Associated space launch

Military communications satellites

COSMOS 877 was lifted into orbit during the mission ‘Kosmos-3M | Strela-1M 121-128’, on board a Kosmos-3M space rocket.

The launch took place on Dec. 7, 1976, 10:23 a.m. from 132/1 (132L).

For more information about the launch, click the button.

Launch to space Kosmos-3M | Strela-1M 121-128
Kosmos-3M | Strela-1M 121-128

Agency: N/A

Status: Launch Successful

Launch date: Dec. 7, 1976, 10:23 a.m. UTC

Rocket: Kosmos-3M

Launch pad: 132/1 (132L)

Location: Plesetsk Cosmodrome, Russian Federation

...

Latest news about this satellite

There are no fresh news available about this satellite. Check back as we update our databases every day.


Newsletter sign-up

Weekly statistics, charts and insights to help you stay on top of the space industry.